Weather History for KOTM - October, 2012

Change the Weather History Date:

Monday, October 15, 2012

  Actual Average Record
Temperature  
Mean Temperature 53 °F 53 °F  
Max Temperature 66 °F 64 °F 90 °F (1938)
Min Temperature 39 °F 42 °F 21 °F (1937)
Degree Days  
Heating Degree Days 12 13  
Month to date heating degree days 210 155  
Since 1 July heating degree days 350 276  
Cooling Degree Days 0 0  
Month to date cooling degree days 0 9  
Year to date cooling degree days 1220 936  
Growing Degree Days 2 (Base 50)    
Moisture  
Dew Point 40 °F    
Average Humidity 63    
Maximum Humidity 89    
Minimum Humidity 37    
Precipitation  
Precipitation 0.00 in 0.09 in 1.02 in (1919)
Month to date precipitation 3.32 1.39  
Year to date precipitation 22.58 31.88  
Sea Level Pressure  
Sea Level Pressure 29.95 in    
Wind  
Wind Speed 6 mph (WSW)    
Max Wind Speed 10 mph    
Max Gust Speed 13 mph    
Visibility 10 miles    
Events Rain    
T = Trace of Precipitation, MM = Missing Value Source: NWS Daily Summary

Daily Weather History Graph

Daily Weather History Graph

Search for Another Location

Airport or City:

Trip Planner

Search our weather history database for the weather conditions in past years. The results will help you decide how hot, cold, wet, or windy it might be!

Date:

Astronomy

Oct. 15, 2012 Rise Set
Actual Time 7:21 AM CDT 6:28 PM CDT
Civil Twilight 6:54 AM CDT 6:56 PM CDT
Nautical Twilight 6:22 AM CDT 7:27 PM CDT
Astronomical Twilight 5:50 AM CDT 7:59 PM CDT
Moon 7:33 AM CDT (10/15) 6:27 PM CDT (10/15)
Length of Visible Light 12h 01m
Length of Day
11h 06m
New Moon, 0% of the Moon is Illuminated
Oct 15
New Moon
Oct 21
First Quarter
Oct 29
Full
Nov 6
Last Quarter
Nov 13
New

Hourly Weather History & Observations

Time (CDT) Temp. Windchill Dew Point Humidity Pressure Visibility Wind Dir Wind Speed Gust Speed Precip Events Conditions
12:53 AM 44.1 °F 40.1 °F 39.9 °F 85% 29.94 in 10.0 mi West 6.9 mph - N/A   Clear
1:53 AM 43.0 °F 38.8 °F 39.9 °F 89% 29.95 in 10.0 mi West 6.9 mph - N/A   Clear
2:53 AM 43.0 °F 38.8 °F 39.0 °F 86% 29.96 in 10.0 mi West 6.9 mph - N/A   Clear
3:53 AM 43.0 °F 38.2 °F 37.9 °F 82% 29.95 in 10.0 mi WNW 8.1 mph - N/A   Clear
4:53 AM 41.0 °F 36.4 °F 37.0 °F 86% 29.96 in 10.0 mi West 6.9 mph - N/A   Clear
5:53 AM 41.0 °F 35.8 °F 37.0 °F 86% 29.97 in 10.0 mi West 8.1 mph - N/A   Clear
6:53 AM 39.0 °F 34.0 °F 36.0 °F 89% 29.98 in 10.0 mi West 6.9 mph - N/A   Clear
7:53 AM 41.0 °F 35.8 °F 37.0 °F 86% 29.99 in 10.0 mi West 8.1 mph - N/A   Clear
8:53 AM 46.0 °F 43.9 °F 39.0 °F 76% 30.00 in 10.0 mi WNW 4.6 mph - 0.01 in   Clear
9:53 AM 51.1 °F - 42.1 °F 71% 30.01 in 10.0 mi North 5.8 mph - N/A   Clear
10:53 AM 55.9 °F - 42.1 °F 60% 30.01 in 10.0 mi NNW 6.9 mph - N/A   Clear
11:53 AM 57.9 °F - 41.0 °F 53% 30.01 in 10.0 mi Calm Calm - N/A   Clear
1:53 PM 63.0 °F - 41.0 °F 45% 29.96 in 10.0 mi Calm Calm - N/A   Clear
2:53 PM 64.9 °F - 42.1 °F 43% 29.94 in 10.0 mi Calm Calm - 0.00 in Rain Light Rain
3:53 PM 66.0 °F - 37.9 °F 36% 29.93 in 9.0 mi Calm Calm - 0.00 in   Clear
4:53 PM 66.0 °F - 39.0 °F 37% 29.92 in 10.0 mi South 3.5 mph - N/A   Clear
5:53 PM 63.0 °F - 41.0 °F 45% 29.90 in 10.0 mi SE 5.8 mph - N/A   Clear
6:53 PM 55.9 °F - 41.0 °F 57% 29.91 in 10.0 mi ESE 5.8 mph - N/A   Clear
7:53 PM 55.0 °F - 42.1 °F 62% 29.91 in 10.0 mi SE 4.6 mph - N/A   Clear
8:53 PM 54.0 °F - 41.0 °F 62% 29.91 in 10.0 mi SE 5.8 mph - 0.00 in   Clear
9:53 PM 52.0 °F - 39.9 °F 63% 29.90 in 10.0 mi SSE 6.9 mph - N/A   Clear
10:53 PM 52.0 °F - 41.0 °F 66% 29.88 in 10.0 mi SSE 9.2 mph - N/A   Clear
11:53 PM 52.0 °F - 42.1 °F 69% 29.88 in 10.0 mi SSE 6.9 mph - N/A   Clear